Location: Hartford
(41.7640°N, 72.6860°W)
Time: 19:16:12
(UTC-04:00)

Amateur Radio Satellites - All Passes

Search period start: 30 July 2014 18:46
Search period end: 31 July 2014 18:46
Location: Hartford, 41.7640°N, 72.6860°W

Satellite Date Start Highest point End Downlink Frequencies (MHz)
Time Altitude Azimuth
STRAND 1 30 Jul 19:01:37 19:06:10 32° 96° (E) 19:10:41 ?
RS-15 30 Jul 19:11:22 19:19:40 23° 16° (NNE) 19:28:03 29.354 - 29.394 USB, Beacon 29.352 USB
HO-68 30 Jul 19:21:19 19:26:10 20° 55° (NE) 19:31:01 435.675 MHz FM
SO-67 30 Jul 19:23:46 19:27:12 68° 259° (W) 19:30:41 435.3500 MHz FM
JAS-2 30 Jul 19:47:56 19:53:52 24° 268° (W) 19:59:34 435.800 - 435.900 CW/SSB, 435.910 FM
SO-50 30 Jul 20:11:03 20:15:18 32° 47° (NE) 20:19:35 436.795 FM
MaSat-1 30 Jul 20:37:44 20:41:34 42° 108° (ESE) 20:46:01 437.345 MHz
STRAND 1 30 Jul 20:40:50 20:45:18 31° 293° (WNW) 20:49:44 ?
AO-40 30 Jul 20:54:36 03:32:00 37° 184° (S) 08:54:30 Beacon 2401.320
UKube-1 30 Jul 20:56:34 21:00:46 49° 72° (ENE) 21:05:00 145.840 MHz, 145.915 MHz
HO-68 30 Jul 21:05:48 21:12:59 86° 254° (WSW) 21:20:12 435.675 MHz FM
RS-15 30 Jul 21:24:34 21:35:19 54° 47° (NE) 21:46:23 29.354 - 29.394 USB, Beacon 29.352 USB
Oscar 11 30 Jul 21:39:37 21:43:53 71° 75° (ENE) 21:48:12 145.825 FM, Beacon 2401.500 USB
SO-50 30 Jul 21:51:33 21:55:53 35° 245° (WSW) 22:00:15 436.795 FM
UOSAT-12 30 Jul 22:01:42 22:05:53 30° 47° (NE) 22:10:01 437.025 FM, 437.400 FM
FUNcube-1 30 Jul 22:06:32 22:10:41 50° 73° (ENE) 22:14:47 145.950 - 145.970 MHz USB
MaSat-1 30 Jul 22:15:41 22:19:08 23° 310° (NW) 22:22:58 437.345 MHz
UKube-1 30 Jul 22:34:40 22:37:14 15° 268° (W) 22:39:49 145.840 MHz, 145.915 MHz
ISS 30 Jul 22:53:32 22:56:46 52° 140° (SE) 23:00:02 145.800 FM
HO-68 30 Jul 22:57:51 23:01:37 15° 271° (W) 23:05:25 435.675 MHz FM
RS-15 30 Jul 23:37:13 23:47:35 49° 249° (WSW) 23:58:21 29.354 - 29.394 USB, Beacon 29.352 USB
UOSAT-12 30 Jul 23:41:45 23:46:05 36° 245° (WSW) 23:50:21 437.025 FM, 437.400 FM
Sapphire 30 Jul 23:45:01 23:49:38 29° 109° (ESE) 23:54:15 437.095 MHz 1200 baud AX-25 AFSK
FUNcube-1 30 Jul 23:45:05 23:47:21 14° 268° (W) 23:49:37 145.950 - 145.970 MHz USB
PCSat 31 Jul 00:17:20 00:22:39 61° 115° (ESE) 00:28:00 145.825 MHz
ISS 31 Jul 00:30:44 00:33:39 27° 338° (NNW) 00:36:35 145.800 FM
Sapphire 31 Jul 01:27:47 01:32:52 41° 307° (NW) 01:38:00 437.095 MHz 1200 baud AX-25 AFSK
Oscar 19 31 Jul 01:47:06 01:51:38 30° 96° (E) 01:56:10 437.125 CW, 437.150 USB
AO-Echo 31 Jul 01:48:46 01:51:21 14° 89° (E) 01:53:52 ?
PCSat 31 Jul 02:02:13 02:06:29 23° 314° (NW) 02:10:46 145.825 MHz
ISS 31 Jul 02:09:08 02:11:12 15° 358° (N) 02:13:16 145.800 FM
JAS-1B 31 Jul 02:14:39 02:21:48 25° 87° (E) 02:28:08 435.800 - 435.900 CW/SSB
Oscar 16 31 Jul 02:15:29 02:20:35 59° 101° (E) 02:25:41 437.025 USB, Beacon 2401.1428
Oscar 10/S400 31 Jul 02:19:55 03:09:06 59° 198° (SSW) 11:25:58 145.825 - 145.975 CW/USB, Beacon 145.810 USB
ITAMSAT 1 31 Jul 02:40:53 02:45:50 44° 99° (E) 02:50:43 435.822 SSB
Uribyol 2 31 Jul 02:59:39 03:04:49 70° 102° (ESE) 03:09:56 436.500 FM
AO-27 31 Jul 03:00:32 03:05:43 69° 102° (ESE) 03:10:52 436.795 MHz FM
TMSAT-1 31 Jul 03:09:46 03:14:08 26° 94° (E) 03:18:27 436.925 FM
AO-Echo 31 Jul 03:25:37 03:30:38 66° 287° (WNW) 03:35:27 ?
Oscar 19 31 Jul 03:26:21 03:30:58 34° 292° (WNW) 03:35:34 437.125 CW, 437.150 USB
Gurwin Techsat 1B 31 Jul 03:34:58 03:40:14 60° 101° (E) 03:45:27 435.225 FM
ISS 31 Jul 03:46:04 03:48:49 23° 19° (NNE) 03:51:34 145.800 FM
Uosat F 31 Jul 03:48:24 03:50:00 11° 89° (E) 03:51:37 435.120 FM
OPAL 31 Jul 03:50:48 03:55:44 75° 72° (ENE) 04:00:42 ?
Oscar 16 31 Jul 03:55:59 03:59:29 19° 298° (WNW) 04:02:58 437.025 USB, Beacon 2401.1428
JAS-1B 31 Jul 04:03:57 04:13:18 74° 289° (WNW) 04:21:11 435.800 - 435.900 CW/SSB
KITSAT 1 31 Jul 04:09:20 04:12:40 13° 98° (E) 04:16:00 435.175 FM
ITAMSAT 1 31 Jul 04:20:58 04:25:03 24° 296° (WNW) 04:29:07 435.822 SSB
AO-7 31 Jul 04:37:16 04:44:57 40° 98° (E) 04:52:33 29.400 - 29.500 MHz
Uribyol 2 31 Jul 04:40:41 04:43:42 16° 300° (WNW) 04:46:43 436.500 FM
AO-27 31 Jul 04:41:32 04:44:39 16° 300° (WNW) 04:47:46 436.795 MHz FM
TMSAT-1 31 Jul 04:49:14 04:54:10 41° 291° (WNW) 04:59:05 436.925 FM
MaSat-1 31 Jul 04:56:11 04:59:43 18° 47° (NE) 05:03:10 437.345 MHz
PANSAT 31 Jul 05:03:35 05:04:41 11° 176° (S) 05:05:48 not established
Gurwin Techsat 1B 31 Jul 05:16:05 05:19:43 19° 298° (WNW) 05:23:20 435.225 FM
ISS 31 Jul 05:22:28 05:25:50 77° 217° (SW) 05:29:11 145.800 FM
Uosat F 31 Jul 05:24:21 05:29:23 80° 286° (WNW) 05:34:23 435.120 FM
OPAL 31 Jul 05:33:12 05:35:10 12° 268° (W) 05:37:07 ?
JAS-1B 31 Jul 05:56:06 06:02:01 19° 311° (NW) 06:07:31 435.800 - 435.900 CW/SSB
KITSAT 1 31 Jul 05:58:35 06:06:37 72° 117° (ESE) 06:14:42 435.175 FM
STRAND 1 31 Jul 06:17:40 06:22:36 48° 71° (ENE) 06:27:32 ?
Hamsat 31 Jul 06:19:19 06:23:13 33° 97° (E) 06:27:07 145.90 MHz
AO-7 31 Jul 06:29:58 06:37:50 49° 297° (WNW) 06:45:39 29.400 - 29.500 MHz
MaSat-1 31 Jul 06:32:25 06:37:44 80° 246° (WSW) 06:42:41 437.345 MHz
Saudisat 1A 31 Jul 06:52:23 06:56:35 45° 117° (ESE) 07:00:49 436.775 MHz
JAS-2 31 Jul 06:56:23 07:02:09 57° 100° (E) 07:07:21 435.800 - 435.900 CW/SSB, 435.910 FM
Uosat F 31 Jul 07:06:24 07:07:19 11° 303° (WNW) 07:08:14 435.120 FM
PCSat 31 Jul 07:24:09 07:25:36 11° 34° (NE) 07:27:02 145.825 MHz
Hamsat 31 Jul 07:55:38 07:59:00 23° 292° (WNW) 08:02:23 145.90 MHz
KITSAT 1 31 Jul 07:55:41 08:02:43 32° 318° (NW) 08:09:47 435.175 FM
STRAND 1 31 Jul 07:58:13 08:02:01 21° 267° (W) 08:05:50 ?
SO-67 31 Jul 08:20:24 08:23:50 56° 285° (WNW) 08:27:14 435.3500 MHz FM
AO-7 31 Jul 08:26:20 08:28:35 11° 319° (NW) 08:30:50 29.400 - 29.500 MHz
Sapphire 31 Jul 08:32:11 08:36:51 28° 48° (NE) 08:41:28 437.095 MHz 1200 baud AX-25 AFSK
Saudisat 1A 31 Jul 08:32:50 08:36:23 23° 316° (NW) 08:39:57 436.775 MHz
HO-68 31 Jul 08:35:03 08:39:27 17° 90° (E) 08:43:50 435.675 MHz FM
JAS-2 31 Jul 08:42:30 08:46:41 21° 301° (WNW) 08:50:35 435.800 - 435.900 CW/SSB, 435.910 FM
PCSat 31 Jul 09:05:01 09:10:20 51° 56° (NE) 09:15:36 145.825 MHz
Oscar 11 31 Jul 09:28:52 09:30:48 13° 90° (E) 09:32:43 145.825 FM, Beacon 2401.500 USB
KITSAT 1 31 Jul 09:57:56 10:01:16 13° 347° (NNW) 10:04:37 435.175 FM
Sapphire 31 Jul 10:15:17 10:20:28 47° 247° (WSW) 10:25:37 437.095 MHz 1200 baud AX-25 AFSK
UKube-1 31 Jul 10:20:32 10:24:54 89° 105° (ESE) 10:29:15 145.840 MHz, 145.915 MHz
HO-68 31 Jul 10:20:47 10:27:58 85° 288° (WNW) 10:35:06 435.675 MHz FM
PCSat 31 Jul 10:49:12 10:53:22 23° 253° (WSW) 10:57:32 145.825 MHz
Oscar 11 31 Jul 11:03:04 11:07:20 58° 286° (WNW) 11:11:36 145.825 FM, Beacon 2401.500 USB
FUNcube-1 31 Jul 11:31:26 11:35:37 76° 284° (WNW) 11:39:50 145.950 - 145.970 MHz USB
RS-15 31 Jul 11:50:40 11:59:33 29° 104° (ESE) 12:08:15 29.354 - 29.394 USB, Beacon 29.352 USB
KITSAT 1 31 Jul 11:57:00 12:01:02 14° 19° (NNE) 12:05:02 435.175 FM
Oscar 16 31 Jul 11:57:36 11:59:19 12° 58° (ENE) 12:01:02 437.025 USB, Beacon 2401.1428
SO-50 31 Jul 12:06:18 12:10:45 73° 121° (ESE) 12:15:18 436.795 FM
HO-68 31 Jul 12:10:15 12:14:39 18° 307° (NW) 12:19:03 435.675 MHz FM
Uribyol 2 31 Jul 12:41:25 12:44:12 15° 60° (ENE) 12:46:59 436.500 FM
AO-27 31 Jul 12:42:34 12:45:20 15° 59° (ENE) 12:48:07 436.795 MHz FM
JAS-1B 31 Jul 12:58:03 13:05:23 27° 54° (NE) 13:13:02 435.800 - 435.900 CW/SSB
AO-Echo 31 Jul 13:01:08 13:05:07 22° 64° (ENE) 13:09:06 ?
Oscar 19 31 Jul 13:04:13 13:09:03 45° 70° (ENE) 13:13:55 437.125 CW, 437.150 USB
Gurwin Techsat 1B 31 Jul 13:19:58 13:22:27 14° 59° (ENE) 13:24:56 435.225 FM
Oscar 16 31 Jul 13:32:45 13:37:52 86° 75° (ENE) 13:43:01 437.025 USB, Beacon 2401.1428
SO-50 31 Jul 13:48:50 13:51:50 17° 320° (NW) 13:54:53 436.795 FM
AO-7 31 Jul 13:49:53 13:53:20 13° 43° (NE) 13:56:46 29.400 - 29.500 MHz
KITSAT 1 31 Jul 13:51:43 13:59:11 38° 46° (NE) 14:06:34 435.175 FM
UOSAT-12 31 Jul 13:52:34 13:57:06 64° 120° (ESE) 14:01:45 437.025 FM, 437.400 FM
ITAMSAT 1 31 Jul 13:59:04 14:04:14 69° 73° (ENE) 14:09:26 435.822 SSB
RS-15 31 Jul 13:59:38 14:10:47 77° 305° (NW) 14:21:46 29.354 - 29.394 USB, Beacon 29.352 USB
Uribyol 2 31 Jul 14:17:50 14:23:01 77° 257° (WSW) 14:28:14 436.500 FM
AO-27 31 Jul 14:18:58 14:24:11 78° 257° (WSW) 14:29:26 436.795 MHz FM
TMSAT-1 31 Jul 14:30:39 14:35:35 41° 69° (ENE) 14:40:31 436.925 FM
AO-Echo 31 Jul 14:38:20 14:43:30 52° 260° (W) 14:48:42 ?
Oscar 19 31 Jul 14:44:41 14:48:35 22° 267° (W) 14:52:32 437.125 CW, 437.150 USB
JAS-1B 31 Jul 14:45:32 14:54:35 87° 255° (WSW) 15:04:35 435.800 - 435.900 CW/SSB
Gurwin Techsat 1B 31 Jul 14:56:20 15:01:40 87° 256° (WSW) 15:07:01 435.225 FM
Uosat F 31 Jul 15:01:08 15:04:34 19° 62° (ENE) 15:07:59 435.120 FM
Oscar 16 31 Jul 15:16:42 15:17:52 11° 272° (W) 15:19:03 437.025 USB, Beacon 2401.1428
Saudisat 1A 31 Jul 15:18:50 15:23:01 40° 50° (NE) 15:27:10 436.775 MHz
UOSAT-12 31 Jul 15:34:16 15:37:41 20° 319° (NW) 15:41:09 437.025 FM, 437.400 FM
AO-7 31 Jul 15:36:13 15:44:17 55° 65° (ENE) 15:52:22 29.400 - 29.500 MHz
ITAMSAT 1 31 Jul 15:41:23 15:44:13 15° 270° (W) 15:47:03 435.822 SSB
KITSAT 1 31 Jul 15:47:03 15:54:52 56° 247° (WSW) 16:02:39 435.175 FM
OPAL 31 Jul 16:01:15 16:04:50 19° 95° (E) 16:08:25 ?
TMSAT-1 31 Jul 16:11:16 16:15:37 26° 266° (W) 16:19:59 436.925 FM
RS-15 31 Jul 16:16:06 16:25:13 29° 333° (NNW) 16:34:21 29.354 - 29.394 USB, Beacon 29.352 USB
Uosat F 31 Jul 16:37:57 16:42:54 56° 259° (W) 16:47:53 435.120 FM
JAS-1B 31 Jul 16:39:57 16:46:22 21° 275° (W) 16:53:13 435.800 - 435.900 CW/SSB
Gurwin Techsat 1B 31 Jul 16:41:53 16:42:22 10° 273° (W) 16:42:50 435.225 FM
Saudisat 1A 31 Jul 16:58:56 17:02:22 22° 248° (WSW) 17:05:47 436.775 MHz
JAS-2 31 Jul 17:07:18 17:13:53 33° 65° (ENE) 17:20:02 435.800 - 435.900 CW/SSB, 435.910 FM
Hamsat 31 Jul 17:13:26 17:16:49 24° 68° (ENE) 17:20:13 145.90 MHz
AO-7 31 Jul 17:29:56 17:37:20 35° 263° (W) 17:44:47 29.400 - 29.500 MHz
OPAL 31 Jul 17:39:03 17:44:00 53° 291° (WNW) 17:48:59 ?
STRAND 1 31 Jul 18:29:23 18:32:23 16° 91° (E) 18:35:22 ?
